When you browse on this site, cookies collect data to enhance your experience and personalize the content and advertising you see.
Visit our Privacy Policy to learn more. By continuing to use the site, you agree to this use of cookies and data.
  • In Romania
  • List of Countries
  • For 7 days
  • Water Temperature
  • Weather Map
  • Weather Widgets
  • user-avatar
    Login

    Hourly Weather Shusha

    Today, 6 June, Saturday

    Time Temperature Precipitation Wind Pressure Humidity
    00:00 +16°C° 0.3 mm 2 mps 662 mmHg 69%
    01:00 +15°C° 0.2 mm 1 mps 662 mmHg 71%
    02:00 +14°C° 0.2 mm 1 mps 662 mmHg 73%
    03:00 +14°C° 0 mm 1 mps 661 mmHg 74%
    04:00 +14°C° 0.2 mm 1 mps 662 mmHg 74%
    05:00 +15°C° 0.2 mm 1 mps 662 mmHg 74%
    06:00 +15°C° 0.2 mm 1 mps 663 mmHg 74%
    07:00 +18°C° 0.2 mm 1 mps 663 mmHg 69%
    08:00 +18°C° 0.2 mm 2 mps 663 mmHg 64%
    09:00 +19°C° 0.2 mm 2 mps 664 mmHg 58%
    10:00 +20°C° 0.2 mm 2 mps 664 mmHg 57%
    11:00 +20°C° 0.2 mm 3 mps 664 mmHg 57%
    12:00 +21°C° 0.2 mm 3 mps 664 mmHg 56%
    13:00 +21°C° 0.5 mm 3 mps 664 mmHg 56%
    14:00 +21°C° 0.5 mm 2 mps 663 mmHg 57%
    15:00 +21°C° 0.5 mm 2 mps 663 mmHg 57%
    16:00 +20°C° 0.9 mm 2 mps 663 mmHg 62%
    17:00 +19°C° 0.9 mm 2 mps 663 mmHg 66%
    18:00 +18°C° 0.9 mm 2 mps 663 mmHg 71%
    19:00 +18°C° 0.1 mm 1 mps 662 mmHg 73%
    20:00 +16°C° 0.1 mm 1 mps 662 mmHg 75%
    21:00 +14°C° 0.1 mm 1 mps 662 mmHg 77%
    22:00 +14°C° 0 mm 1 mps 662 mmHg 76%
    23:00 +14°C° 0 mm 1 mps 662 mmHg 75%

    Tomorrow, 7 June, Sunday

    Time Temperature Precipitation Wind Pressure Humidity
    00:00 +14°C° 0 mm 2 mps 662 mmHg 73%
    01:00 +13°C° 0 mm 2 mps 662 mmHg 72%
    02:00 +13°C° 0 mm 2 mps 662 mmHg 71%
    03:00 +13°C° 0 mm 2 mps 662 mmHg 70%
    04:00 +14°C° 0 mm 2 mps 662 mmHg 69%
    05:00 +15°C° 0 mm 1 mps 662 mmHg 67%
    06:00 +16°C° 0 mm 1 mps 663 mmHg 66%
    07:00 +18°C° 0 mm 1 mps 663 mmHg 61%
    08:00 +20°C° 0 mm 1 mps 663 mmHg 56%
    09:00 +20°C° 0 mm 2 mps 663 mmHg 51%
    10:00 +21°C° 0 mm 2 mps 663 mmHg 49%
    11:00 +23°C° 0 mm 2 mps 663 mmHg 48%
    12:00 +24°C° 0 mm 2 mps 663 mmHg 46%
    13:00 +24°C° 0 mm 2 mps 663 mmHg 47%
    14:00 +25°C° 0 mm 2 mps 663 mmHg 47%
    15:00 +25°C° 0 mm 2 mps 662 mmHg 47%
    16:00 +24°C° 0 mm 2 mps 662 mmHg 50%
    17:00 +24°C° 0 mm 2 mps 662 mmHg 53%
    18:00 +23°C° 0 mm 1 mps 661 mmHg 56%
    19:00 +21°C° 0 mm 1 mps 661 mmHg 59%
    20:00 +19°C° 0 mm 1 mps 661 mmHg 61%
    21:00 +16°C° 0 mm 1 mps 661 mmHg 64%
    22:00 +16°C° 0 mm 2 mps 661 mmHg 63%
    23:00 +16°C° 0 mm 2 mps 660 mmHg 63%

    Day after tomorrow, 8 June, Monday

    Time Temperature Precipitation Wind Pressure Humidity
    00:00 +15°C° 0 mm 2 mps 660 mmHg 63%
    01:00 +15°C° 0 mm 2 mps 660 mmHg 63%
    02:00 +15°C° 0 mm 2 mps 660 mmHg 62%
    03:00 +14°C° 0 mm 2 mps 660 mmHg 62%
    04:00 +15°C° 0 mm 2 mps 660 mmHg 61%
    05:00 +16°C° 0 mm 2 mps 660 mmHg 60%
    06:00 +18°C° 0 mm 1 mps 660 mmHg 60%
    07:00 +19°C° 0 mm 2 mps 661 mmHg 53%
    08:00 +20°C° 0 mm 2 mps 661 mmHg 47%
    09:00 +23°C° 0 mm 2 mps 662 mmHg 40%
    10:00 +24°C° 0 mm 2 mps 662 mmHg 39%
    11:00 +25°C° 0 mm 2 mps 661 mmHg 37%
    12:00 +26°C° 0 mm 2 mps 661 mmHg 36%
    13:00 +26°C° 0 mm 3 mps 661 mmHg 36%
    14:00 +26°C° 0 mm 3 mps 661 mmHg 36%
    15:00 +26°C° 0 mm 3 mps 660 mmHg 36%
    16:00 +25°C° 0 mm 2 mps 660 mmHg 40%
    17:00 +24°C° 0 mm 2 mps 660 mmHg 43%
    18:00 +24°C° 0 mm 1 mps 660 mmHg 47%
    19:00 +22°C° 0 mm 1 mps 659 mmHg 49%
    20:00 +19°C° 0 mm 1 mps 659 mmHg 52%
    21:00 +16°C° 0 mm 1 mps 659 mmHg 54%
    22:00 +16°C° 0 mm 2 mps 659 mmHg 54%
    23:00 +16°C° 0 mm 2 mps 659 mmHg 55%

    9 June, Tuesday

    Time Temperature Precipitation Wind Pressure Humidity
    00:00 +16°C° 0 mm 2 mps 659 mmHg 55%
    01:00 +15°C° 0 mm 2 mps 658 mmHg 54%
    02:00 +15°C° 0 mm 2 mps 658 mmHg 54%
    03:00 +14°C° 0 mm 2 mps 658 mmHg 53%
    04:00 +15°C° 0 mm 2 mps 658 mmHg 54%
    05:00 +16°C° 0 mm 2 mps 659 mmHg 55%
    06:00 +17°C° 0 mm 2 mps 659 mmHg 56%
    07:00 +19°C° 0 mm 2 mps 660 mmHg 51%
    08:00 +20°C° 0 mm 2 mps 660 mmHg 46%
    09:00 +23°C° 0 mm 2 mps 661 mmHg 40%
    10:00 +24°C° 0 mm 2 mps 661 mmHg 40%
    11:00 +25°C° 0 mm 2 mps 661 mmHg 39%
    12:00 +25°C° 0 mm 2 mps 661 mmHg 39%
    13:00 +26°C° 0 mm 2 mps 661 mmHg 39%
    14:00 +26°C° 0 mm 2 mps 660 mmHg 40%
    15:00 +26°C° 0 mm 2 mps 660 mmHg 41%
    16:00 +25°C° 0 mm 2 mps 660 mmHg 45%
    17:00 +25°C° 0 mm 1 mps 660 mmHg 48%
    18:00 +24°C° 0 mm 1 mps 660 mmHg 52%
    19:00 +22°C° 0 mm 1 mps 660 mmHg 55%
    20:00 +21°C° 0 mm 1 mps 660 mmHg 58%
    21:00 +18°C° 0 mm 2 mps 660 mmHg 61%
    22:00 +18°C° 0 mm 2 mps 660 mmHg 60%
    23:00 +18°C° 0 mm 1 mps 660 mmHg 60%

    10 June, Wednesday

    Time Temperature Precipitation Wind Pressure Humidity
    00:00 +18°C° 0 mm 1 mps 660 mmHg 60%
    01:00 +18°C° 0 mm 1 mps 659 mmHg 60%
    02:00 +18°C° 0 mm 1 mps 659 mmHg 61%
    03:00 +16°C° 0 mm 1 mps 659 mmHg 62%
    04:00 +18°C° 0 mm 1 mps 659 mmHg 61%
    05:00 +19°C° 0 mm 1 mps 660 mmHg 61%
    06:00 +20°C° 0 mm 1 mps 660 mmHg 61%
    07:00 +21°C° 0 mm 1 mps 661 mmHg 56%
    08:00 +23°C° 0 mm 1 mps 661 mmHg 51%
    09:00 +24°C° 0 mm 2 mps 661 mmHg 46%
    10:00 +25°C° 0 mm 2 mps 661 mmHg 45%
    11:00 +26°C° 0 mm 2 mps 662 mmHg 43%
    12:00 +27°C° 0 mm 2 mps 662 mmHg 42%
    13:00 +27°C° 0 mm 2 mps 662 mmHg 41%
    14:00 +27°C° 0 mm 2 mps 661 mmHg 41%
    15:00 +28°C° 0 mm 2 mps 661 mmHg 41%
    16:00 +27°C° 0.2 mm 2 mps 661 mmHg 45%
    17:00 +26°C° 0.2 mm 1 mps 661 mmHg 49%
    18:00 +25°C° 0.2 mm 1 mps 661 mmHg 54%
    19:00 +24°C° 0.2 mm 1 mps 661 mmHg 57%
    20:00 +22°C° 0.2 mm 1 mps 661 mmHg 60%
    21:00 +19°C° 0.2 mm 2 mps 661 mmHg 63%
    22:00 +19°C° 0 mm 2 mps 661 mmHg 63%
    23:00 +19°C° 0 mm 2 mps 660 mmHg 63%

    11 June, Thursday

    Time Temperature Precipitation Wind Pressure Humidity
    00:00 +19°C° 0 mm 2 mps 660 mmHg 62%
    01:00 +19°C° 0 mm 1 mps 660 mmHg 62%
    02:00 +19°C° 0 mm 1 mps 659 mmHg 62%
    03:00 +19°C° 0 mm 1 mps 659 mmHg 62%
    04:00 +19°C° 0 mm 1 mps 659 mmHg 61%
    05:00 +20°C° 0 mm 1 mps 660 mmHg 61%
    06:00 +21°C° 0 mm 1 mps 660 mmHg 60%
    07:00 +22°C° 0 mm 1 mps 660 mmHg 52%
    08:00 +24°C° 0 mm 1 mps 661 mmHg 44%
    09:00 +25°C° 0 mm 1 mps 661 mmHg 36%
    10:00 +26°C° 0 mm 2 mps 661 mmHg 35%
    11:00 +27°C° 0 mm 2 mps 661 mmHg 33%
    12:00 +27°C° 0 mm 2 mps 661 mmHg 31%
    13:00 +28°C° 0 mm 3 mps 660 mmHg 32%
    14:00 +28°C° 0 mm 3 mps 660 mmHg 32%
    15:00 +28°C° 0 mm 3 mps 660 mmHg 32%
    16:00 +27°C° 0 mm 3 mps 660 mmHg 36%
    17:00 +26°C° 0 mm 2 mps 660 mmHg 40%
    18:00 +25°C° 0 mm 1 mps 660 mmHg 43%
    19:00 +24°C° 0 mm 1 mps 660 mmHg 43%
    20:00 +22°C° 0 mm 1 mps 659 mmHg 43%
    21:00 +20°C° 0 mm 1 mps 659 mmHg 43%
    22:00 +20°C° 0 mm 1 mps 659 mmHg 44%
    23:00 +18°C° 0 mm 2 mps 658 mmHg 44%
    Show more